sat.trackr.live / text

‹ back to catalog

STARLINK-5753

NORAD 55581 · 2023-020N

PAYLOAD ACTIVE UNKNOWN

§ Identity

Operator
Country
US
Launch date
2023-02-12
Launch site
AFETR
Launch vehicle
Mass (kg)
RCS (m²)

Purposes: comms

External: N2YO · Heavens-Above · Gunter

§ Orbital elements

Epoch: 2026-09-20T13:14:40.627104Z

Period
94.27 min
Inclination
43.0043°
Eccentricity
0.0001120
Mean motion
15.27576493 rev/d
Perigee alt
482.3 km
Apogee alt
483.8 km
Semi-major
6,861.2 km
B*
-3.2924e-6
RAAN
351.6137°
Arg perigee
272.9542°
Mean anomaly
87.1181°
Rev number
19,863

§ Raw data

STARLINK-57531 55581U 23020N   26263.55185911 -.00000353  00000+0 -32924-5 0  99922 55581  43.0043 351.6137 0001120 272.9542  87.1181 15.27576493198633

JSON: /api/v1/satellites/55581 · /tle

For live sub-satellite position, see the globe view (requires WebGL).

§ Visibility from observer

Set your observer location to see the next 7 days of passes ≥ 10°. The values pass through the URL so the page stays shareable.

No JS? Fill the form by hand. The geolocation button needs JavaScript.